EN

Hourly Weather Dziegiel

Today, 29 October, Thursday

Time Temperature Precipitation Wind Pressure Humidity
00:00 +7°C° 0 mm 3 mps 744 mmHg 94%
01:00 +7°C° 0 mm 3 mps 744 mmHg 95%
02:00 +7°C° 0 mm 3 mps 744 mmHg 95%
03:00 +7°C° 0 mm 3 mps 744 mmHg 96%
04:00 +7°C° 0 mm 3 mps 743 mmHg 96%
05:00 +7°C° 0 mm 3 mps 743 mmHg 96%
06:00 +7°C° 0 mm 3 mps 743 mmHg 95%
07:00 +7°C° 0 mm 3 mps 743 mmHg 95%
08:00 +7°C° 0.1 mm 3 mps 743 mmHg 92%
09:00 +7°C° 0.1 mm 4 mps 743 mmHg 90%
10:00 +8°C° 0.1 mm 4 mps 743 mmHg 87%
11:00 +8°C° 0.4 mm 4 mps 743 mmHg 84%
12:00 +9°C° 0.4 mm 5 mps 743 mmHg 81%
13:00 +10°C° 0.4 mm 5 mps 743 mmHg 78%
14:00 +9°C° 0.1 mm 5 mps 743 mmHg 78%
15:00 +10°C° 0.1 mm 4 mps 743 mmHg 77%
16:00 +8°C° 0.1 mm 4 mps 744 mmHg 77%
17:00 +8°C° 0 mm 4 mps 744 mmHg 78%
18:00 +8°C° 0 mm 5 mps 744 mmHg 79%
19:00 +7°C° 0 mm 5 mps 745 mmHg 80%
20:00 +7°C° 0.1 mm 5 mps 745 mmHg 81%
21:00 +7°C° 0.1 mm 5 mps 745 mmHg 82%
22:00 +7°C° 0.1 mm 6 mps 745 mmHg 82%
23:00 +7°C° 0 mm 5 mps 746 mmHg 83%

Tomorrow, 30 October, Friday

Time Temperature Precipitation Wind Pressure Humidity
00:00 +7°C° 0 mm 5 mps 746 mmHg 84%
01:00 +7°C° 0 mm 5 mps 746 mmHg 86%
02:00 +7°C° 0 mm 5 mps 746 mmHg 85%
03:00 +7°C° 0 mm 4 mps 746 mmHg 85%
04:00 +7°C° 0 mm 4 mps 746 mmHg 85%
05:00 +6°C° 0 mm 4 mps 747 mmHg 87%
06:00 +7°C° 0 mm 3 mps 747 mmHg 89%
07:00 +5°C° 0 mm 3 mps 747 mmHg 92%
08:00 +7°C° 0 mm 3 mps 747 mmHg 89%
09:00 +7°C° 0 mm 3 mps 747 mmHg 86%
10:00 +8°C° 0 mm 3 mps 747 mmHg 83%
11:00 +8°C° 0.2 mm 3 mps 747 mmHg 84%
12:00 +8°C° 0.2 mm 2 mps 746 mmHg 86%
13:00 +8°C° 0.2 mm 2 mps 746 mmHg 87%
14:00 +8°C° 0.3 mm 2 mps 746 mmHg 89%
15:00 +8°C° 0.3 mm 2 mps 746 mmHg 91%
16:00 +9°C° 0.3 mm 1 mps 746 mmHg 93%
17:00 +9°C° 0.2 mm 1 mps 747 mmHg 94%
18:00 +9°C° 0.2 mm 1 mps 747 mmHg 94%
19:00 +9°C° 0.2 mm 1 mps 747 mmHg 95%
20:00 +8°C° 0 mm 1 mps 748 mmHg 95%
21:00 +8°C° 0 mm 1 mps 748 mmHg 96%
22:00 +8°C° 0 mm 1 mps 748 mmHg 96%
23:00 +8°C° 0 mm 1 mps 749 mmHg 96%

Day after tomorrow, 31 October, Saturday

Time Temperature Precipitation Wind Pressure Humidity
00:00 +7°C° 0 mm 1 mps 749 mmHg 96%
01:00 +7°C° 0 mm 1 mps 749 mmHg 95%
02:00 +7°C° 0 mm 1 mps 750 mmHg 94%
03:00 +7°C° 0 mm 1 mps 750 mmHg 93%
04:00 +7°C° 0 mm 1 mps 751 mmHg 92%
05:00 +6°C° 0 mm 1 mps 751 mmHg 91%
06:00 +6°C° 0 mm 1 mps 752 mmHg 90%
07:00 +6°C° 0 mm 1 mps 752 mmHg 90%
08:00 +7°C° 0 mm 1 mps 752 mmHg 84%
09:00 +9°C° 0 mm 1 mps 753 mmHg 79%
10:00 +10°C° 0 mm 1 mps 753 mmHg 74%
11:00 +11°C° 0 mm 1 mps 753 mmHg 71%
12:00 +10°C° 0 mm 2 mps 753 mmHg 68%
13:00 +12°C° 0 mm 2 mps 753 mmHg 64%
14:00 +10°C° 0 mm 2 mps 753 mmHg 68%
15:00 +10°C° 0 mm 2 mps 753 mmHg 72%
16:00 +9°C° 0 mm 2 mps 753 mmHg 77%
17:00 +8°C° 0 mm 2 mps 753 mmHg 79%
18:00 +8°C° 0 mm 2 mps 754 mmHg 82%
19:00 +7°C° 0 mm 2 mps 754 mmHg 85%
20:00 +7°C° 0 mm 2 mps 754 mmHg 87%
21:00 +7°C° 0 mm 3 mps 754 mmHg 89%
22:00 +7°C° 0 mm 3 mps 754 mmHg 91%
23:00 +5°C° 0 mm 3 mps 754 mmHg 91%

1 November, Sunday

Time Temperature Precipitation Wind Pressure Humidity
00:00 +5°C° 0 mm 3 mps 754 mmHg 92%
01:00 +5°C° 0 mm 3 mps 754 mmHg 93%
02:00 +5°C° 0 mm 3 mps 753 mmHg 92%
03:00 +5°C° 0 mm 4 mps 753 mmHg 92%
04:00 +5°C° 0 mm 4 mps 753 mmHg 91%
05:00 +5°C° 0 mm 4 mps 752 mmHg 90%
06:00 +5°C° 0 mm 4 mps 752 mmHg 89%
07:00 +5°C° 0 mm 4 mps 752 mmHg 88%
08:00 +6°C° 0 mm 5 mps 752 mmHg 83%
09:00 +7°C° 0 mm 5 mps 752 mmHg 78%
10:00 +7°C° 0 mm 6 mps 752 mmHg 73%
11:00 +8°C° 0 mm 6 mps 751 mmHg 70%
12:00 +9°C° 0 mm 6 mps 751 mmHg 66%
13:00 +10°C° 0 mm 6 mps 750 mmHg 63%
14:00 +9°C° 0 mm 6 mps 750 mmHg 65%
15:00 +9°C° 0 mm 6 mps 750 mmHg 67%
16:00 +8°C° 0 mm 6 mps 749 mmHg 69%
17:00 +8°C° 0 mm 6 mps 749 mmHg 71%
18:00 +7°C° 0 mm 6 mps 749 mmHg 73%
19:00 +7°C° 0 mm 6 mps 749 mmHg 76%
20:00 +7°C° 0 mm 5 mps 749 mmHg 78%
21:00 +7°C° 0 mm 5 mps 749 mmHg 80%
22:00 +7°C° 0 mm 5 mps 748 mmHg 82%
23:00 +6°C° 0 mm 5 mps 748 mmHg 85%

2 November, Monday

Time Temperature Precipitation Wind Pressure Humidity
00:00 +6°C° 0 mm 5 mps 748 mmHg 87%
01:00 +6°C° 0 mm 4 mps 748 mmHg 89%
02:00 +6°C° 0 mm 4 mps 748 mmHg 91%
03:00 +6°C° 0 mm 4 mps 748 mmHg 92%
04:00 +7°C° 0 mm 4 mps 748 mmHg 93%
05:00 +7°C° 0 mm 4 mps 748 mmHg 93%
06:00 +7°C° 0 mm 4 mps 748 mmHg 93%
07:00 +7°C° 0 mm 4 mps 748 mmHg 93%
08:00 +8°C° 0 mm 4 mps 748 mmHg 89%
09:00 +9°C° 0 mm 5 mps 748 mmHg 84%
10:00 +10°C° 0 mm 5 mps 748 mmHg 80%
11:00 +12°C° 0 mm 5 mps 747 mmHg 78%
12:00 +13°C° 0 mm 5 mps 747 mmHg 75%
13:00 +13°C° 0 mm 5 mps 747 mmHg 73%
14:00 +13°C° 0 mm 5 mps 747 mmHg 75%
15:00 +12°C° 0 mm 5 mps 747 mmHg 77%
16:00 +12°C° 0 mm 5 mps 747 mmHg 79%
17:00 +12°C° 0 mm 5 mps 747 mmHg 80%
18:00 +10°C° 0 mm 5 mps 747 mmHg 82%
19:00 +11°C° 0 mm 4 mps 747 mmHg 84%
20:00 +11°C° 0 mm 4 mps 747 mmHg 85%
21:00 +11°C° 0 mm 4 mps 747 mmHg 86%
22:00 +11°C° 0 mm 4 mps 747 mmHg 86%
23:00 +11°C° 0.2 mm 4 mps 747 mmHg 88%

3 November, Tuesday

Time Temperature Precipitation Wind Pressure Humidity
00:00 +11°C° 0.2 mm 4 mps 747 mmHg 89%
01:00 +11°C° 0.2 mm 4 mps 748 mmHg 91%
02:00 +11°C° 0.2 mm 4 mps 748 mmHg 91%
03:00 +11°C° 0.2 mm 4 mps 748 mmHg 92%
04:00 +11°C° 0.2 mm 4 mps 748 mmHg 92%
05:00 +10°C° 1.2 mm 4 mps 748 mmHg 93%
06:00 +10°C° 1.2 mm 3 mps 749 mmHg 94%
07:00 +10°C° 1.2 mm 3 mps 749 mmHg 95%
08:00 +10°C° 1.4 mm 3 mps 749 mmHg 96%
09:00 +10°C° 1.4 mm 3 mps 750 mmHg 96%
10:00 +9°C° 1.4 mm 3 mps 750 mmHg 96%
11:00 +9°C° 1.8 mm 2 mps 750 mmHg 96%
12:00 +9°C° 1.8 mm 2 mps 751 mmHg 96%
13:00 +10°C° 1.8 mm 1 mps 751 mmHg 96%
14:00 +10°C° 1.9 mm 1 mps 751 mmHg 96%
15:00 +10°C° 1.9 mm 1 mps 751 mmHg 96%
16:00 +10°C° 1.9 mm 1 mps 752 mmHg 96%
17:00 +10°C° 0.9 mm 1 mps 752 mmHg 95%
18:00 +10°C° 0.9 mm 1 mps 752 mmHg 94%
19:00 +9°C° 0.9 mm 1 mps 753 mmHg 93%
20:00 +8°C° 0.3 mm 2 mps 753 mmHg 92%
21:00 +8°C° 0.3 mm 2 mps 753 mmHg 91%
22:00 +8°C° 0.3 mm 2 mps 753 mmHg 91%
23:00 +8°C° 0.1 mm 2 mps 753 mmHg 91%
Show more